Content
SEND FEEDBACK

Daily
Averages
Monthly
Summary
United States of America

LOVING PLACE, NEW MEXICO


Home > North America > United States > New Mexico
Elevation: 3666 feet     Latitude: 33 18N     Longitude: 104 31W

WEATHER
 
SELECT A DAY
Number of Records: 183,782;   Date Range: 1/1/95 - 11/24/14
 
SHARE

PRINT THIS DATA

[ ← Previous Day ]
WEATHER ALMANAC - JANUARY 31, 2013
[ Next Day → ]
[ °C ]   °F
Weather ElementAverageHighLow
Temperature45.7 °F64 °F (1:51 pm)27 °F (6:51 am)
Dewpoint13 °F19 °F (8:51 am)8.1 °F (1:51 am)
Humidity30 %53 % (6:51 am)13 % (1:51 pm)
Barometer30.13 in30.18 in (8:51 am)30.06 in (2:51 pm)
Wind Speed8.1 mph20.7 mph (11:51 am)
Wind Gust28.8 mph (11:51 am)
Weather ElementAverage
Visibility10 mi
Wind DirectionWSW (244.3 °)

Weather ElementTotal
Precipitation---
Heating Degree Days19.5 (Base 65)
Averaged from 23 records on January 31, 2013
WEATHER CONDITIONS BREAKOUT
WIND DIRECTION BREAKOUT
WEATHER BY HOUR - JANUARY 31, 2013
[ °C ]   °F
Local TimeTemperatureDewpointHumidityBarometerVisibilityWind DirectionWind SpeedGust SpeedPrecipitationEventsConditions
1:51 AM30.9 °F8.1 °F38 %30.09 in10.0 miWSW (250°)6.9 mphClear
2:51 AM33.1 °F12.0 °F42 %30.09 in10.0 miSW (220°)5.8 mphClear
3:51 AM35.1 °F15.1 °F44 %30.09 in10.0 miWSW (250°)12.7 mphClear
4:51 AM30.9 °F12.0 °F46 %30.10 in10.0 miSW (220°)8.1 mphClear
5:51 AM30.9 °F12.9 °F47 %30.12 in10.0 miWSW (240°)5.8 mphClear
6:51 AM27.0 °F12.0 °F53 %30.16 in10.0 miWest (260°)4.6 mphClear
7:51 AM35.1 °F16.0 °F46 %30.17 in10.0 miWest (260°)6.9 mphClear
8:51 AM48.0 °F19.0 °F32 %30.18 in10.0 miWNW (300°)5.8 mphClear
9:51 AM55.9 °F17.1 °F22 %30.18 in10.0 miNW (310°)15.0 mph24.2 mphClear
10:51 AM57.0 °F17.1 °F21 %30.16 in10.0 miNW (310°)18.4 mph27.6 mphClear
11:51 AM60.1 °F17.1 °F19 %30.10 in10.0 miNNW (330°)20.7 mph28.8 mphClear
12:51 PM62.1 °F16.0 °F17 %30.09 in10.0 miNNW (330°)15.0 mph23.0 mphClear
1:51 PM64.0 °F10.9 °F13 %30.07 in10.0 miNNW (340°)12.7 mphClear
2:51 PM64.0 °F10.9 °F13 %30.06 in10.0 miNorth (360°)11.5 mph17.3 mphClear
3:51 PM63.0 °F10.0 °F13 %30.06 in10.0 miNorth (350°)5.8 mphClear
4:51 PM60.1 °F10.9 °F14 %30.09 in10.0 miNE (50°)4.6 mphClear
5:51 PM48.9 °F12.0 °F23 %30.13 in10.0 miCalmClear
6:51 PM46.9 °F10.0 °F22 %30.16 in10.0 miSouth (190°)4.6 mphClear
7:51 PM42.1 °F10.9 °F28 %30.16 in10.0 miWSW (240°)5.8 mphClear
8:51 PM41.0 °F12.0 °F31 %30.16 in10.0 miWSW (240°)5.8 mphClear
9:51 PM39.0 °F12.0 °F33 %30.16 in10.0 miWSW (240°)4.6 mphClear
10:51 PM37.9 °F12.9 °F36 %30.17 in10.0 miNNW (330°)4.6 mphClear
11:51 PM37.0 °F12.9 °F37 %30.15 in10.0 miCalmClear
Hourly data recorded from KROW, located miles away from Loving Place, New Mexico







STORIES FROM OUR PARTNERS